Miscellaneous Local Product
Issued by NWS Hastings, NE

Home | Current Version | Previous Version | Text Only | Print | Product List | Glossary Off
Versions: 1 2 3 4 5 6 7 8 9 10 11 12 13 14 15 16 17 18 19 20 21 22 23 24 25 26 27 28 29 30 31 32 33 34 35 36 37 38 39 40 41 42 43 44 45 46 47 48 49 50

295
AXUS43 KGID 231502
MISGRI

GID CWA HOURLY WEATHER ROUNDUP
NATIONAL WEATHER SERVICE HASTINGS NE
1000 AM CDT MON APR 23 2018

NOTE: "FAIR" INDICATES FEW OR NO CLOUDS BELOW 12,000 FEET WITH NO
SIGNIFICANT WEATHER AND/OR OBSTRUCTIONS TO VISIBILITY.

...SOUTH CENTRAL NEBRASKA...

CITY           SKY/WX    TMP DP  RH WIND       PRES   REMARKS
GRAND ISLAND   SUNNY     56  37  49 SE5       30.19F
KEARNEY        SUNNY     57  39  51 E5        30.19F
HASTINGS       SUNNY     56  38  50 NE3       30.19F
ORD            SUNNY     53  41  63 CALM      30.18F
YORK             N/A     61  39  44 CALM      30.19S
AURORA         SUNNY     56  38  50 S5        30.19S
LEXINGTON      SUNNY     53  43  67 CALM      30.19S
HOLDREGE       SUNNY     56  41  56 E6        30.18F
HEBRON         SUNNY     58  36  43 CALM      30.17F

...NEBRASKA PANHANDLE...

CITY           SKY/WX    TMP DP  RH WIND       PRES   REMARKS
CHADRON        SUNNY     54  40  59 VRB6      30.08F
ALLIANCE       SUNNY     50  40  68 S13       30.11S
SCOTTSBLUFF    SUNNY     48  41  76 SE9       30.10S
SIDNEY         SUNNY     51  40  65 S10       30.11F

...WESTERN AND NORTH CENTRAL NEBRASKA...

CITY           SKY/WX    TMP DP  RH WIND       PRES   REMARKS
VALENTINE      SUNNY     58  41  53 S12       30.16S
AINSWORTH      SUNNY     56  42  59 S10       30.17S
ONEILL         SUNNY     60  41  49 S6        30.19F
BROKEN BOW     SUNNY     54  43  66 SE5       30.17F
IMPERIAL       SUNNY     52  41  66 S13       30.16F
NORTH PLATTE   SUNNY     53  41  63 CALM      30.17F
MCCOOK         SUNNY     51  41  68 CALM      30.18F

...EASTERN NEBRASKA...

CITY           SKY/WX    TMP DP  RH WIND       PRES   REMARKS
NORFOLK        SUNNY     54  36  50 SE5       30.19F
SO SIOUX CITY  SUNNY     55  36  48 SE5       30.21F
TEKAMAH        SUNNY     57  34  41 E3        30.20F
COLUMBUS       SUNNY     57  36  45 CALM      30.20
ALBION         SUNNY     57  33  40 CALM      30.19S
OMAHA EPPLEY   MOSUNNY   59  33  37 N3        30.19F
OFFUTT AFB     SUNNY     58  34  40 NE5       30.18F
MILLARD        SUNNY     60  33  36 CALM      30.19F
LINCOLN        SUNNY     59  31  34 VRB5      30.20S
NEBRASKA CITY  SUNNY     58  34  40 NE7       30.18S
BEATRICE       SUNNY     61  35  37 E5        30.17F
FALLS CITY     CLOUDY    57  33  40 NE7       30.16F

...NORTHERN KANSAS...

CITY           SKY/WX    TMP DP  RH WIND       PRES   REMARKS
GOODLAND       SUNNY     51  40  65 S10       30.16F
HILL CITY      SUNNY     55  44  66 CALM      30.19S
NORTON         SUNNY     55  43  62 SE3       30.18S
PHILLIPSBURG   SUNNY     59  39  47 CALM      30.18F
SMITH CENTER   SUNNY     59  37  44 E3        30.18F
BELOIT         SUNNY     57  39  51 CALM      30.17S
HAYS           SUNNY     59  40  49 N7        30.18F
RUSSELL        SUNNY     59  43  55 N6        30.16F
CONCORDIA      SUNNY     58  34  40 E6        30.17S
SALINA         SUNNY     59  40  49 CALM      30.16F
TOPEKA         SUNNY     60  39  45 VRB3      30.13F



USA.gov is the U.S. government's official web portal to all federal, state and local government web resources and services.